EZY987 EGKK-EDDF

Flight info

Callsign EZY987
Flight time N/A
Altitude 35000
Route DVR UL9 KONAN UL607 KOK DCT REMBA UL607 SPI T180 NIVNU/N0399F230 T847 IMCOM IMCOM1B
Aircraft A20N/M-SDE2E3FGHIRWXY/LB1

Departure

Time 2026-05-04 18:22
Airport London Gatwick Airport (EGKK)

Arrival

Time N/A
Airport Frankfurt Main Airport (EDDF)
Time Latitude Longitude Altitude Speed Heading
2026-05-04 17:47 51.16196 -0.18359 205 ft 0 kts 257°
2026-05-04 18:01 51.16198 -0.18345 215 ft 2 kts 252°
2026-05-04 18:01 51.16201 -0.18327 214 ft 2 kts 249°
2026-05-04 18:01 51.16206 -0.18309 214 ft 1 kts 240°
2026-05-04 18:02 51.16218 -0.18262 210 ft 2 kts 253°
2026-05-04 18:02 51.16224 -0.18238 215 ft 2 kts 233°
2026-05-04 18:02 51.16236 -0.18222 213 ft 1 kts 180°
2026-05-04 18:02 51.16239 -0.18222 209 ft 0 kts 172°
2026-05-04 18:06 51.16238 -0.18222 213 ft 1 kts 171°
2026-05-04 18:06 51.16219 -0.18216 204 ft 5 kts 169°
2026-05-04 18:06 51.16177 -0.18200 204 ft 8 kts 166°
2026-05-04 18:07 51.16115 -0.18176 207 ft 11 kts 167°
2026-05-04 18:07 51.16034 -0.18146 207 ft 13 kts 167°
2026-05-04 18:07 51.15932 -0.18108 209 ft 18 kts 167°
2026-05-04 18:07 51.15794 -0.18062 212 ft 20 kts 170°
2026-05-04 18:08 51.15677 -0.18057 217 ft 7 kts 233°
2026-05-04 18:08 51.15675 -0.18119 213 ft 7 kts 267°
2026-05-04 18:08 51.15668 -0.18210 207 ft 10 kts 261°
2026-05-04 18:08 51.15642 -0.18330 208 ft 13 kts 227°
2026-05-04 18:09 51.15462 -0.18301 204 ft 16 kts 168°
2026-05-04 18:09 51.15222 -0.18228 214 ft 19 kts 186°
2026-05-04 18:10 51.15185 -0.18351 215 ft 13 kts 254°
2026-05-04 18:10 51.15159 -0.18503 213 ft 16 kts 255°
2026-05-04 18:10 51.15137 -0.18687 204 ft 18 kts 258°
2026-05-04 18:10 51.15108 -0.18897 208 ft 20 kts 258°
2026-05-04 18:11 51.15077 -0.19130 205 ft 23 kts 258°
2026-05-04 18:11 51.15042 -0.19384 214 ft 24 kts 257°
2026-05-04 18:11 51.15003 -0.19657 208 ft 26 kts 257°
2026-05-04 18:11 51.14965 -0.19948 209 ft 28 kts 257°
2026-05-04 18:12 51.14922 -0.20258 207 ft 29 kts 258°
2026-05-04 18:12 51.14878 -0.20579 208 ft 30 kts 258°
2026-05-04 18:12 51.14834 -0.20890 204 ft 26 kts 257°
2026-05-04 18:12 51.14808 -0.21070 210 ft 13 kts 257°
2026-05-04 18:13 51.14779 -0.21219 208 ft 16 kts 253°
2026-05-04 18:13 51.14755 -0.21379 214 ft 8 kts 244°
2026-05-04 18:13 51.14736 -0.21402 211 ft 0 kts 192°
2026-05-04 18:17 51.14723 -0.21402 205 ft 4 kts 179°
2026-05-04 18:17 51.14618 -0.21329 208 ft 0 kts 166°
2026-05-04 18:19 51.14615 -0.21328 207 ft 2 kts 166°
2026-05-04 18:20 51.14559 -0.21293 211 ft 12 kts 145°
2026-05-04 18:20 51.14522 -0.21174 206 ft 12 kts 77°
2026-05-04 18:20 51.14524 -0.21159 206 ft 1 kts 76°
2026-05-04 18:20 51.14526 -0.21141 211 ft 2 kts 84°
2026-05-04 18:21 51.14527 -0.21131 214 ft 0 kts 78°
2026-05-04 18:21 51.14531 -0.21105 206 ft 13 kts 78°
2026-05-04 18:21 51.14601 -0.20597 214 ft 80 kts 78°
2026-05-04 18:21 51.14764 -0.19431 209 ft 132 kts 77°
2026-05-04 18:22 51.14911 -0.18387 247 ft 156 kts 77°
2026-05-04 18:22 51.15205 -0.16130 1081 ft 151 kts 77°
2026-05-04 18:22 51.15435 -0.14526 1740 ft 150 kts 75°
2026-05-04 18:22 51.15677 -0.12855 2244 ft 163 kts 76°
2026-05-04 18:23 51.15854 -0.11609 2551 ft 176 kts 76°
2026-05-04 18:23 51.16129 -0.09617 2967 ft 197 kts 76°
2026-05-04 18:23 51.16436 -0.07354 3381 ft 222 kts 77°
2026-05-04 18:23 51.16767 -0.04818 3936 ft 244 kts 79°
2026-05-04 18:24 51.16894 -0.02004 4574 ft 262 kts 91°
2026-05-04 18:24 51.16820 0.00934 5403 ft 268 kts 91°
2026-05-04 18:24 51.16757 0.03894 5815 ft 272 kts 91°
2026-05-04 18:24 51.16701 0.06909 5981 ft 273 kts 91°
2026-05-04 18:25 51.16647 0.09957 6128 ft 278 kts 91°
2026-05-04 18:25 51.16592 0.13017 6831 ft 279 kts 91°
2026-05-04 18:25 51.16537 0.16094 7843 ft 279 kts 91°
2026-05-04 18:25 51.16523 0.19220 8719 ft 284 kts 90°
2026-05-04 18:26 51.16540 0.22433 9394 ft 299 kts 90°
2026-05-04 18:26 51.16562 0.25876 9795 ft 321 kts 90°
2026-05-04 18:26 51.16578 0.29466 10534 ft 326 kts 90°
2026-05-04 18:26 51.16588 0.33001 11230 ft 335 kts 90°
2026-05-04 18:27 51.16593 0.36774 11875 ft 343 kts 90°
2026-05-04 18:27 51.16593 0.40124 12605 ft 346 kts 90°
2026-05-04 18:27 51.16591 0.44152 13477 ft 349 kts 90°
2026-05-04 18:27 51.16588 0.47975 14209 ft 353 kts 90°
2026-05-04 18:28 51.16585 0.51917 14924 ft 357 kts 90°
2026-05-04 18:28 51.16584 0.55896 15620 ft 361 kts 90°
2026-05-04 18:28 51.16582 0.59924 16301 ft 366 kts 90°
2026-05-04 18:28 51.16578 0.63996 16981 ft 370 kts 91°
2026-05-04 18:29 51.16573 0.68096 17660 ft 374 kts 91°
2026-05-04 18:29 51.16565 0.72268 18313 ft 378 kts 91°
2026-05-04 18:29 51.16556 0.76481 18907 ft 382 kts 91°
2026-05-04 18:29 51.16547 0.80707 19488 ft 385 kts 91°
2026-05-04 18:30 51.16521 0.89280 20626 ft 393 kts 92°
2026-05-04 18:30 51.16505 0.93661 21180 ft 397 kts 92°
2026-05-04 18:30 51.16487 0.98085 21743 ft 401 kts 92°
2026-05-04 18:31 51.16468 1.02536 22309 ft 405 kts 92°
2026-05-04 18:31 51.16446 1.07055 22840 ft 409 kts 92°
2026-05-04 18:31 51.16423 1.11616 23404 ft 412 kts 92°
2026-05-04 18:31 51.16398 1.16202 23879 ft 416 kts 92°
2026-05-04 18:32 51.16371 1.20823 24358 ft 418 kts 92°
2026-05-04 18:32 51.16342 1.25429 24805 ft 421 kts 92°
2026-05-04 18:32 51.16311 1.30104 25259 ft 424 kts 92°
2026-05-04 18:32 51.16279 1.34625 25656 ft 427 kts 92°
2026-05-04 18:33 51.16108 1.39259 26077 ft 429 kts 96°
2026-05-04 18:33 51.15872 1.44046 26435 ft 433 kts 96°
2026-05-04 18:33 51.15645 1.48842 26886 ft 435 kts 96°
2026-05-04 18:33 51.15417 1.53657 27280 ft 438 kts 96°
2026-05-04 18:34 51.15184 1.58510 27667 ft 441 kts 96°
2026-05-04 18:34 51.14948 1.63341 28057 ft 443 kts 96°
2026-05-04 18:34 51.14711 1.68151 28443 ft 445 kts 96°
2026-05-04 18:34 51.14466 1.73049 28808 ft 447 kts 96°
2026-05-04 18:35 51.14216 1.78017 29175 ft 449 kts 96°
2026-05-04 18:35 51.13964 1.82984 29531 ft 451 kts 97°
2026-05-04 18:35 51.13708 1.87982 29871 ft 453 kts 97°
2026-05-04 18:35 51.13449 1.92988 30206 ft 455 kts 97°
2026-05-04 18:36 51.13187 1.98028 30506 ft 457 kts 97°
2026-05-04 18:36 51.12921 2.03088 30810 ft 459 kts 97°
2026-05-04 18:36 51.12653 2.08147 31154 ft 460 kts 97°
2026-05-04 18:36 51.12380 2.13254 31296 ft 465 kts 97°
2026-05-04 18:37 51.12100 2.18428 31374 ft 472 kts 97°
2026-05-04 18:37 51.11819 2.23592 31525 ft 475 kts 97°
2026-05-04 18:37 51.11533 2.28821 31801 ft 474 kts 97°
2026-05-04 18:37 51.11244 2.34061 32083 ft 474 kts 97°
2026-05-04 18:38 51.10954 2.39288 32365 ft 473 kts 97°
2026-05-04 18:38 51.10661 2.44506 32638 ft 473 kts 97°
2026-05-04 18:38 51.10366 2.49712 32904 ft 473 kts 98°
2026-05-04 18:38 51.10089 2.54571 33136 ft 473 kts 98°
2026-05-04 18:39 51.09790 2.59773 33390 ft 472 kts 98°
2026-05-04 18:39 51.09376 2.64941 33619 ft 470 kts 103°
2026-05-04 18:39 51.08623 2.69986 33851 ft 468 kts 109°
2026-05-04 18:39 51.07705 2.74962 34071 ft 468 kts 109°
2026-05-04 18:40 51.06813 2.79863 34244 ft 468 kts 109°
2026-05-04 18:40 51.05912 2.84831 34426 ft 468 kts 109°
2026-05-04 18:40 51.05007 2.89815 34590 ft 469 kts 109°
2026-05-04 18:40 51.04103 2.94782 34750 ft 469 kts 109°
2026-05-04 18:41 51.03189 2.99777 34938 ft 469 kts 109°
2026-05-04 18:41 51.01583 3.08523 34986 ft 469 kts 109°
2026-05-04 18:42 50.99892 3.17686 34982 ft 469 kts 109°
2026-05-04 18:42 50.98048 3.27624 34973 ft 468 kts 109°
2026-05-04 18:43 50.96353 3.36714 34965 ft 468 kts 109°
2026-05-04 18:43 50.94485 3.46682 34966 ft 468 kts 110°
2026-05-04 18:44 50.92645 3.56449 34958 ft 468 kts 110°
2026-05-04 18:44 50.90783 3.66276 34955 ft 468 kts 110°
2026-05-04 18:45 50.88903 3.76149 34962 ft 468 kts 110°
2026-05-04 18:45 50.87048 3.85841 34956 ft 468 kts 110°
2026-05-04 18:46 50.85273 3.95067 34959 ft 468 kts 110°
2026-05-04 18:46 50.83450 4.04502 34962 ft 468 kts 110°
2026-05-04 18:47 50.81545 4.14306 34963 ft 467 kts 111°
2026-05-04 18:47 50.79649 4.24013 34965 ft 468 kts 111°
2026-05-04 18:48 50.77764 4.33621 34965 ft 468 kts 111°
2026-05-04 18:48 50.75818 4.43485 34962 ft 468 kts 111°
2026-05-04 18:49 50.73889 4.53219 34963 ft 469 kts 111°
2026-05-04 18:49 50.71931 4.63042 34964 ft 469 kts 111°
2026-05-04 18:50 50.69962 4.72873 34961 ft 469 kts 112°
2026-05-04 18:50 50.67986 4.82694 34960 ft 469 kts 112°
2026-05-04 18:51 50.66002 4.92517 34963 ft 470 kts 112°
2026-05-04 18:51 50.63992 5.02333 34962 ft 470 kts 112°
2026-05-04 18:52 50.61994 5.12028 34962 ft 470 kts 112°
2026-05-04 18:52 50.59958 5.21884 34963 ft 470 kts 113°
2026-05-04 18:53 50.58086 5.30895 34964 ft 470 kts 113°
2026-05-04 18:53 50.56032 5.40727 34964 ft 471 kts 113°
2026-05-04 18:54 50.53987 5.50470 34964 ft 471 kts 113°
2026-05-04 18:54 50.51926 5.60245 34963 ft 471 kts 113°
2026-05-04 18:55 50.49961 5.70111 34967 ft 473 kts 111°
2026-05-04 18:55 50.47253 5.84917 34964 ft 473 kts 111°
2026-05-04 18:56 50.45555 5.93986 34904 ft 469 kts 111°
2026-05-04 18:56 50.44645 5.98819 34667 ft 459 kts 112°
2026-05-04 18:56 50.43744 6.03589 34385 ft 449 kts 112°
2026-05-04 18:57 50.42952 6.07759 33792 ft 449 kts 112°
2026-05-04 18:57 50.42049 6.12478 32935 ft 451 kts 112°
2026-05-04 18:57 50.41146 6.17189 32212 ft 450 kts 113°
2026-05-04 18:57 50.40422 6.20963 31604 ft 451 kts 113°
2026-05-04 18:58 50.39540 6.25554 30852 ft 451 kts 113°
2026-05-04 18:58 50.38639 6.30246 30319 ft 446 kts 113°
2026-05-04 18:58 50.37744 6.34897 29735 ft 442 kts 113°
2026-05-04 18:58 50.36881 6.39451 29190 ft 438 kts 110°
2026-05-04 18:59 50.36311 6.43718 28691 ft 437 kts 104°
2026-05-04 18:59 50.35999 6.48276 28174 ft 435 kts 100°
2026-05-04 18:59 50.35722 6.53005 27629 ft 430 kts 101°
2026-05-04 18:59 50.35431 6.57670 27094 ft 426 kts 101°
2026-05-04 19:00 50.35138 6.62236 26564 ft 422 kts 100°
2026-05-04 19:00 50.34845 6.66744 26055 ft 418 kts 100°
2026-05-04 19:00 50.34550 6.71269 25528 ft 415 kts 100°
2026-05-04 19:00 50.34258 6.75739 25020 ft 412 kts 99°
2026-05-04 19:01 50.33974 6.80194 24501 ft 410 kts 99°
2026-05-04 19:01 50.33541 6.84555 23951 ft 406 kts 107°
2026-05-04 19:01 50.32752 6.88769 23454 ft 400 kts 114°
2026-05-04 19:01 50.31662 6.92730 22928 ft 394 kts 119°
2026-05-04 19:02 50.30497 6.96590 22426 ft 390 kts 118°
2026-05-04 19:02 50.29401 7.00258 21946 ft 386 kts 118°
2026-05-04 19:02 50.28273 7.04046 21447 ft 383 kts 118°
2026-05-04 19:02 50.27162 7.07776 20957 ft 379 kts 118°
2026-05-04 19:03 50.26041 7.11533 20462 ft 376 kts 118°
2026-05-04 19:03 50.24934 7.15233 19981 ft 373 kts 118°
2026-05-04 19:03 50.23852 7.18844 19509 ft 371 kts 118°
2026-05-04 19:03 50.22767 7.22458 19040 ft 368 kts 118°
2026-05-04 19:04 50.21709 7.25974 18571 ft 366 kts 118°
2026-05-04 19:04 50.20630 7.29557 18057 ft 365 kts 118°
2026-05-04 19:04 50.19570 7.33136 17602 ft 361 kts 115°
2026-05-04 19:04 50.18693 7.36788 17114 ft 358 kts 113°
2026-05-04 19:05 50.18124 7.39204 16811 ft 356 kts 113°
2026-05-04 19:05 50.17007 7.43914 16215 ft 352 kts 114°
2026-05-04 19:05 50.16156 7.47483 15745 ft 350 kts 114°
2026-05-04 19:05 50.15594 7.49833 15449 ft 348 kts 114°
2026-05-04 19:06 50.14826 7.53043 15030 ft 346 kts 114°
2026-05-04 19:06 50.14156 7.55833 14672 ft 345 kts 114°
2026-05-04 19:06 50.13131 7.60101 14107 ft 343 kts 114°
2026-05-04 19:06 50.12445 7.62343 13864 ft 338 kts 127°
2026-05-04 19:07 50.10951 7.65312 13602 ft 354 kts 133°
2026-05-04 19:07 50.09575 7.68024 13378 ft 354 kts 129°
2026-05-04 19:07 50.08229 7.71158 13111 ft 351 kts 124°
2026-05-04 19:07 50.07028 7.74453 12846 ft 351 kts 121°
2026-05-04 19:08 50.05926 7.77751 12580 ft 349 kts 123°
2026-05-04 19:08 50.04695 7.80965 12319 ft 348 kts 124°
2026-05-04 19:08 50.03462 7.84206 12057 ft 347 kts 124°
2026-05-04 19:08 50.02229 7.87428 11811 ft 345 kts 124°
2026-05-04 19:09 50.00996 7.90621 11564 ft 343 kts 124°
2026-05-04 19:09 49.99781 7.93748 11305 ft 342 kts 124°
2026-05-04 19:09 49.98556 7.96924 11052 ft 341 kts 123°
2026-05-04 19:09 49.97411 8.00093 10968 ft 338 kts 122°
2026-05-04 19:10 49.95989 8.04119 10960 ft 340 kts 122°
2026-05-04 19:10 49.94373 8.08671 10959 ft 341 kts 122°
2026-05-04 19:11 49.93219 8.11897 10955 ft 340 kts 122°
2026-05-04 19:11 49.92063 8.15110 10957 ft 340 kts 122°
2026-05-04 19:11 49.90906 8.18316 10956 ft 340 kts 122°
2026-05-04 19:11 49.89747 8.21519 10956 ft 341 kts 122°
2026-05-04 19:12 49.88631 8.24761 10951 ft 342 kts 115°
2026-05-04 19:12 49.88545 8.32089 10955 ft 355 kts 74°
2026-05-04 19:12 49.89380 8.35670 10756 ft 356 kts 70°
2026-05-04 19:13 49.90305 8.39221 10513 ft 353 kts 69°
2026-05-04 19:13 49.91217 8.42726 10373 ft 344 kts 70°
2026-05-04 19:13 49.92074 8.46111 10257 ft 330 kts 71°
2026-05-04 19:13 49.92873 8.49346 10040 ft 313 kts 71°
2026-05-04 19:14 49.93619 8.52422 9556 ft 307 kts 71°
2026-05-04 19:14 49.94357 8.55496 9303 ft 299 kts 72°
2026-05-04 19:14 49.95074 8.58503 9181 ft 299 kts 72°
2026-05-04 19:14 49.95738 8.61295 9092 ft 299 kts 72°
2026-05-04 19:15 49.96459 8.64327 8954 ft 298 kts 72°
2026-05-04 19:15 49.97175 8.67340 8823 ft 297 kts 72°
2026-05-04 19:15 49.97873 8.70274 8694 ft 295 kts 72°
2026-05-04 19:15 49.98600 8.73331 8401 ft 293 kts 72°
2026-05-04 19:16 49.99296 8.76262 8041 ft 292 kts 72°
2026-05-04 19:16 49.99965 8.79080 7683 ft 290 kts 72°
2026-05-04 19:16 50.00678 8.82089 7313 ft 287 kts 72°
2026-05-04 19:16 50.01366 8.84999 6944 ft 285 kts 72°